User: anonymous   Login
Location: Igon
(43.1667°N, 0.2333°W)
Time: 07:05:17
(UTC+00:00)
Language:

PSLV DEB - Orbit

View from above orbital plane
View from above orbital plane
View from above satellite
View from above satellite

Ground track
Ground track

The orbit data is extracted from the following two-line orbital elements,

1 28429U 01049NP  21166.49734599  .00004102  00000-0  17287-3 0  9990
2 28429  97.3411 184.6937 0013515 142.2484 217.9704 15.23801451965145
Epoch (UTC): 15 June 2021 11:56:10
Eccentricity: 0.0013515
inclination: 97.3411°
perigee height: 485 km
apogee height: 503 km
right ascension of ascending node: 184.6937°
argument of perigee: 142.2484°
revolutions per day: 15.23801451
mean anomaly at epoch: 217.9704°
orbit number at epoch: 96514

The dashed part of the orbit path shows where the satellite is in the earth's shadow,  

DLR